GFSGBSN_prec_radar_267.txt.gz
Reflectivity
14 12 19 8 11 -20 -20 -20 -20 -20 -20 -20 -20 -20 -20 -20 -20 -20 -20 -20 -20 -20 -20 -20 -20 -20 -20 -20 -20 -20 -20 -20 -20 -20 -20 -20 -20 -20 -20 -20 -20 -20 -20 -20 -20 -20 -20
-1 26 30 24 25 11 -13 -20 -18 -20 -20 -20 -20 -20 -20 -20 -20 -20 -20 -20 -20 -20 -20 -20 -20 -20 -20 -20 -20 -20 -20 -20 -20 -20 -20 -20 -20 -20 -20 -20 -20 -20 -20 -20 -20 -20 -20
-18 -20 -2 13 -5 3 -18 -12 -1 -10 -20 -20 -20 -20 -20 -20 -20 -20 -20 -20 -20 -20 -20 -20 -20 -20 -20 -20 -20 -20 -20 -20 -20 -20 -20 -20 -20 -20 -20 -20 -20 -20 -20 -20 -20 -20 -20
13 -18 -20 -20 0 -20 -20 -20 2 -11 4 -20 -20 -20 -20 -20 -20 -20 -20 -20 -20 -20 -20 -20 -20 -20 -20 -20 -20 -20 -20 -20 -20 -20 -20 -20 -20 -20 -20 -20 -20 -20 -20 -20 -20 -20 -20
26 22 -20 -20 -3 -7 -20 -0 -16 -15 -20 2 -4 -20 -20 -20 -20 -20 -20 -20 -20 -20 -20 -20 -20 -20 -20 -20 -20 -20 -20 -20 -20 -20 -20 -20 -20 -20 -20 -20 -20 -20 -20 -20 -20 -20 -20
30 24 2 -20 -20 -14 -12 -17 -20 -20 -20 -19 -10 8 -20 -20 -20 -20 -20 -20 -20 -20 -20 -20 -20 -20 -20 -20 -20 -20 -20 -20 -20 -20 -20 -20 -20 -20 -20 -20 -20 -20 -20 -20 -20 -20 -20
35 34 30 -9 -20 -20 -20 -19 -20 -20 -20 -20 -20 -20 -20 -20 -20 -20 -20 -20 -20 -20 -20 -20 -20 -20 -20 -20 -20 -20 -20 -20 -20 -20 -20 -20 -20 -20 -20 -20 -20 -20 -20 -20 -20 -20 -20
25 31 30 16 -20 4 -3 -20 -15 -20 -20 -20 -20 -20 -20 -20 -20 -20 -20 -20 -20 -20 -20 -20 -20 -20 -20 -20 -20 -20 -20 -20 -20 -20 -20 -20 -20 -20 -20 -20 -20 -20 -20 -20 -20 -20 -20
20 15 21 -13 -10 -20 5 -1 -20 -18 -20 -20 -20 -20 -20 -20 -20 -20 -20 -20 -20 -20 -20 -20 -20 -20 -20 -20 -20 -20 -20 -20 -20 -20 -20 -20 -20 -20 -20 -20 -20 -20 -20 -20 -20 -20 -20
19 -20 3 -13 8 -20 -20 21 -9 -14 16 -6 -16 -20 -2 -20 -20 -20 -20 -20 -18 -20 -20 -20 -20 -20 -20 -20 -20 -20 -20 -20 -20 -20 -20 -20 -20 -20 -20 -20 -20 -20 -20 -20 -20 -20 -20
18 14 10 12 11 9 -20 -20 3 17 15 3 -20 -20 6 3 -20 -20 -20 -20 -20 -20 -20 -20 -20 -20 -20 -20 -20 -20 -20 -20 -20 -20 -20 -20 -20 -20 -20 -20 -20 -20 -20 -20 -20 -20 -20
27 -11 10 12 12 2 -20 11 0 -11 20 15 19 24 4 8 -10 10 1 -20 -20 -20 -20 -20 -20 -20 -20 -20 -20 -20 -20 -20 -20 -20 -20 -20 -20 -20 -20 -20 -20 -20 -20 -20 -20 -20 -20
11 18 -20 3 7 -13 -20 25 26 27 29 26 22 20 22 4 -3 -3 -14 -1 -10 -20 -20 -20 -20 -20 -20 -20 -20 -20 -20 -20 -20 -20 -20 -20 -20 -20 -20 -20 -20 -20 -20 -20 -20 -20 -20
25 12 -6 -20 10 -20 -20 11 15 28 32 30 17 23 24 31 15 -18 17 27 19 -20 -20 -20 -20 -20 -20 -20 -20 -20 -20 -20 -20 -20 -20 -20 -20 -20 -20 -20 -20 -20 -20 -20 -20 -20 -20
-7 2 17 -20 10 7 -17 32 19 27 35 27 23 18 25 19 16 18 14 30 7 -20 -20 -20 -20 -20 -20 -20 -20 -20 -20 -20 -20 -20 -20 -20 -20 -20 -20 -20 -20 -20 -20 -20 -20 -20 -20
0 14 14 -4 13 14 -16 21 14 33 39 31 32 14 25 23 20 28 2 5 -20 -20 -20 -18 -20 -20 -20 -20 -20 -20 -20 -20 -20 -20 -20 -20 -20 -20 -20 -20 -20 -20 -20 -20 -20 -20 -20
27 11 14 1 -3 11 -9 8 29 38 19 26 33 24 23 22 27 23 -6 -20 -20 -20 -4 -2 -20 -20 -20 -20 -20 -20 -20 -20 -20 -20 -20 -20 -20 -20 -20 -20 -20 -20 -20 -20 -20 -20 -20
-8 -1 21 22 -20 1 -17 19 18 33 26 22 32 32 9 29 28 22 -10 -12 -20 -20 -20 -20 -20 -20 -20 -20 -20 -20 -20 -20 -20 -20 -20 -20 -20 -20 -20 -20 -20 -20 -20 -20 -20 -20 -20
18 -1 -6 37 -5 -6 -16 7 38 39 35 29 27 21 31 39 18 4 3 -20 -15 -20 -20 -20 -20 -20 -20 -20 -20 -20 -20 -20 -20 -20 -20 -20 -20 -20 -20 -20 -20 -20 -20 -20 -20 -20 -20
26 13 6 16 26 -5 -7 17 30 27 31 26 20 28 30 33 18 -13 -8 4 12 -13 -20 -20 -20 -20 -16 -20 -20 -20 -20 -20 -20 -20 -20 -20 -20 -20 -20 -20 -20 -20 -20 -20 -20 -20 -20
16 10 30 24 30 -4 -20 22 28 39 40 30 35 23 24 36 28 -0 -19 -16 -7 13 4 -14 -20 -20 -20 -20 -20 -20 -20 -20 -20 -20 -20 -20 -20 -20 -20 -20 -20 -20 -20 -20 -20 -20 -20
19 9 24 27 33 27 -7 16 28 25 30 41 19 -20 29 19 16 20 11 -20 -20 -2 18 18 -14 -20 -20 -20 -20 -20 -20 -20 -20 -20 -20 -20 -20 -20 -20 -20 -20 -20 -20 -20 -20 -20 -20
19 6 17 31 33 20 13 -7 -1 28 25 28 19 -6 -20 23 30 4 12 18 -20 -10 25 6 -20 -5 -15 -20 -20 -20 -20 -20 -20 -20 -20 -20 -20 -20 -20 -20 -20 -20 -20 -20 -20 -20 -20
8 18 22 36 30 31 -6 6 2 12 28 2 11 -20 6 13 38 8 -15 -8 -15 -19 5 7 -20 -20 -20 -20 -20 -20 -20 -20 -20 -20 -20 -20 -20 -20 -20 -20 -20 -20 -20 -20 -20 -20 -20
-20 17 6 19 37 31 29 14 14 14 26 18 10 2 6 20 -11 -18 0 -2 16 -10 20 -16 -20 -20 -20 -20 -20 -20 -20 -20 -20 -20 -20 -20 -20 -20 -20 -20 -20 -20 -20 -20 -20 -20 -20
12 15 26 26 19 34 26 30 10 26 22 14 8 25 6 -8 7 -5 18 33 17 -18 -20 -20 -20 -20 -20 -20 -20 -20 -20 -20 -20 -20 -20 -20 -20 -20 -20 -20 -20 -20 -20 -20 -20 -20 -20
2 -18 16 15 -9 39 34 35 15 23 17 23 25 25 39 37 17 -10 -8 -16 -20 -11 -18 -20 -20 -20 -20 -20 -2 -13 -20 -20 -20 -20 -20 -20 -20 -20 -20 -7 -13 -20 -20 -20 -20 -20 -20
-18 -20 -12 20 4 33 30 35 18 27 28 23 30 29 31 16 24 -19 -20 -20 -17 17 -8 -18 -20 -20 -20 5 1 15 -4 -20 -20 -20 -20 -20 -20 -20 -20 -20 -12 -20 -20 -20 -20 -20 -20
14 14 1 18 25 34 32 34 8 23 18 27 29 -5 -0 -20 -19 -12 -20 -9 -2 8 -0 -20 -17 -20 -20 -20 -19 -19 -19 -20 -20 -20 -20 -20 -20 -20 -20 -20 -20 -20 -20 -20 -20 -20 -20

GFSGBSN_prec_radar_270.txt.gz
Reflectivity
-20 -20 -20 -20 -12 -12 -20 -20 -20 -20 -20 -20 -20 -20 -20 -20 -20 -20 -20 -20 -20 -20 -20 -20 -20 -20 -20 -20 -20 -20 -20 -20 -20 -20 -20 -20 -20 -20 -20 -13 -20 -20 -20 -20 -20 -20 -20
-20 -18 -11 -12 -18 -18 -16 -20 -20 -20 -20 -20 -20 -20 -20 -20 -20 -20 -20 -20 -20 -20 -20 -20 -20 -20 -20 -20 -20 -20 -20 -20 -20 -20 -20 -20 -20 -20 -7 -8 -20 -20 -20 -20 -20 -20 -20
9 -18 -12 -1 24 11 -13 -18 7 -17 -20 -20 -20 -20 -20 -20 -20 -20 -20 -20 -20 -20 -20 -20 -20 -20 -20 -20 -20 -20 -20 -20 -20 -20 -20 -20 -20 -20 -20 -20 -20 -20 -20 -20 -20 -20 -20
18 1 14 -16 2 15 -18 10 27 1 1 -20 -20 -20 -20 -20 -20 -20 -20 -20 -20 -20 -20 -20 -20 -20 -20 -20 -20 -20 -20 -20 -20 -20 -20 -20 -20 -8 -20 -20 -20 -20 -20 -20 -20 -20 -20
28 16 15 -9 -20 -20 -17 -5 19 21 18 -15 -6 -20 -20 -20 -20 -20 -20 -20 -20 -20 -20 -20 -20 -20 -20 -20 -20 -20 -20 -20 -20 -20 -20 -20 -20 -20 -20 -20 -20 -20 -20 -20 -20 -20 -20
-6 18 16 -19 1 -20 -20 -11 -17 2 -15 -20 -20 -18 -20 -20 -20 -20 -20 -20 -20 -20 -20 -20 -20 -20 -20 -20 -20 -20 -20 -20 -20 -20 -20 -20 -20 -20 -20 -20 -20 -20 -20 -20 -20 -20 -20
18 23 15 -11 -20 3 -20 -20 -20 -9 2 -15 -20 -20 -20 -20 -20 -20 -20 -20 -20 -20 -20 -20 -20 -20 -20 -20 -20 -20 -20 -20 -20 -20 -20 -20 -20 -20 -20 -20 -20 -20 -20 -20 -20 -20 -20
11 28 26 23 10 -2 -18 -20 -20 -20 -17 -17 -9 -20 -20 -20 -20 -20 -20 -20 -20 -20 -20 -20 -20 -20 -20 -20 -20 -20 -20 -20 -20 -20 -20 -20 -20 -20 -20 -20 -20 -20 -20 -20 -20 -20 -20
-17 18 23 21 29 18 19 -11 -20 -20 -19 -20 -1 -20 -20 -20 -20 -20 -20 -20 -20 -20 -20 -20 -20 -20 -20 -20 -20 -20 -20 -20 -20 -20 -20 -20 -20 -20 -20 -20 -20 -20 -20 -20 -20 -20 -20
9 1 18 9 27 21 20 -19 8 -18 -20 -20 -20 -18 -20 -20 -20 -20 -20 -20 -20 -20 -20 -20 -20 -20 -20 -20 -20 -20 -20 -20 -20 -20 -20 -20 -20 -20 -20 -20 -20 -20 -20 -20 -20 -20 -20
3 6 19 20 23 35 40 20 25 15 -20 -20 -20 -20 -20 -20 -8 -20 -20 -20 -20 -20 -20 -20 -20 -20 -20 -20 -20 -20 -20 -20 -20 -20 -20 -20 -20 -20 -20 -20 -20 -20 -20 -20 -20 -20 -20
24 10 18 15 26 25 31 25 7 -8 -20 -4 -9 -20 11 -20 -20 -20 -20 -20 -20 -16 -20 -20 -20 -20 -20 -20 -20 -20 -20 -20 -20 -20 -20 -20 -20 -20 -20 -20 -20 -20 -20 -20 -20 -20 -20
31 22 -0 31 9 28 31 29 -20 -20 -20 -20 25 -19 14 -16 -20 -20 -20 -20 5 15 -20 -20 -20 -20 -20 -20 -20 -20 -20 -20 -20 -20 -20 -20 -20 -20 -20 -20 -20 -20 -20 -20 -20 -20 -20
28 15 20 17 17 11 6 17 2 -20 -20 -20 -14 18 -10 -20 5 22 24 23 17 -18 -20 -20 -20 -20 -20 -20 -20 -20 -20 -20 -20 -20 -20 -20 -20 -20 -20 -20 -20 -20 -20 -20 -20 -20 -20
14 21 11 23 28 7 -0 2 0 -20 -20 -20 8 22 11 -19 9 17 23 25 14 -4 -20 -20 -20 -20 -20 -20 -20 -20 -20 -20 -20 -20 -20 -20 -20 -20 -20 -20 -20 -20 -20 -20 -20 -20 -20
28 31 22 4 32 10 10 2 8 8 -19 23 23 24 12 13 29 19 20 13 5 6 -20 -20 -20 -20 -20 -20 -20 -20 -20 -20 -20 -20 -20 -20 -20 -20 -20 -20 -20 -20 -20 -20 -20 -20 -20
17 18 8 20 9 19 10 13 -11 9 -2 22 30 24 6 32 31 33 24 7 -1 10 -20 -20 -20 -20 -20 -20 -20 -20 -20 -20 -20 -20 -20 -20 -20 -20 -20 -20 -20 -20 -20 -20 -20 -20 -20
7 34 36 27 25 2 1 13 -2 17 19 34 32 30 23 30 37 30 20 -8 -11 -6 -20 -20 -20 -20 -20 -20 -20 -20 -20 -20 -20 -20 -20 -20 -20 -20 -20 -20 -20 -20 -20 -20 -20 -20 -20
-6 33 32 23 18 26 5 9 1 16 20 31 35 19 22 31 38 21 11 -14 -4 -20 -20 -20 -15 -10 -20 -20 -20 -20 -20 -20 -20 -20 -20 -20 -20 -16 -16 -20 -20 -20 -20 -20 -20 -20 -20
-12 25 30 20 -20 1 10 9 0 22 30 38 30 24 31 34 37 14 -2 9 -3 -20 -20 -20 -20 -20 -20 -20 -20 -20 -20 -20 -20 -20 -20 -20 -20 -20 -6 -20 -20 -20 -20 -20 -20 -20 -20
-18 19 35 25 -15 30 24 6 -10 17 25 28 30 20 34 25 34 8 1 -10 -16 -19 -20 -20 -20 -20 -20 -20 -20 -20 -20 -20 -20 -20 -20 -20 -17 -20 -20 -20 -20 -20 -20 -20 -20 -20 -20
10 20 32 23 13 20 24 16 13 6 30 36 38 34 22 -2 13 11 23 2 -20 -20 -20 -20 -20 -20 -20 -20 -20 -20 -20 -20 -20 -20 -20 -20 -20 -20 10 -20 -20 -20 -20 -20 -20 -20 -20
16 13 27 22 32 27 25 28 -2 24 33 42 36 28 19 17 15 -14 4 -8 -20 -20 -20 -19 29 19 -20 -20 -20 -20 -20 -20 -20 -20 -20 -20 -20 -20 -20 -20 -20 -20 -20 -20 -20 -20 -20
6 1 4 17 22 35 30 35 3 16 36 39 39 30 33 34 14 10 -12 -15 -20 -20 -20 7 21 34 -2 -13 -20 -20 -20 -20 -20 -20 -20 -20 -20 -20 -20 -20 -15 -20 -20 -20 -20 -20 -20
6 14 22 3 -19 -7 12 4 26 -4 27 15 37 36 39 39 3 -10 -15 -13 -6 23 20 -19 11 28 7 -20 -1 8 -19 -20 -20 -20 -20 -20 -20 -20 -20 -20 -20 -20 -20 -20 -20 -20 -20
17 23 13 17 13 11 14 22 32 14 17 34 36 30 31 38 31 -19 -20 -20 -15 28 13 8 2 22 -15 -20 6 7 5 -20 -20 -20 -20 -20 -20 -1 -20 -13 -20 -20 -20 -20 -20 -20 -20
0 24 18 18 21 27 32 29 27 22 14 31 42 37 20 1 -14 -20 -5 -13 0 3 -13 7 12 21 6 9 10 6 -3 -20 -20 -20 -20 -20 -20 -1 -1 -4 -16 -20 -20 -20 -20 -20 -20
-13 16 25 11 26 21 31 31 15 27 13 19 29 17 11 13 24 -1 -20 -19 -19 1 -20 -2 23 10 -11 13 12 11 2 -16 -20 -20 -20 -20 -20 -11 2 0 -18 -20 -20 -20 -20 -20 -20
13 20 21 -5 19 13 23 29 20 29 2 27 15 28 40 30 10 7 -20 -20 -20 6 2 7 25 5 -20 -20 9 11 -4 -20 -20 -6 -20 -20 -20 -20 -20 -20 -20 -20 -20 -20 -20 -20 -20

GFSGBSN_prec_radar_273.txt.gz
Reflectivity
-5 -18 -9 -20 -20 -20 -20 -20 -20 -20 -20 -20 -20 -20 -20 -20 -20 -20 -20 -20 -20 -20 -20 -20 -20 -20 -20 -20 -20 -20 -20 -20 -20 -20 -20 -20 -20 -20 -20 -20 -20 -20 -20 -20 -20 -20 -20
6 -3 -20 -20 -15 -18 -13 7 -20 -20 -20 -19 -20 -20 -20 -20 -20 -20 -20 -20 -20 -20 -20 -20 -20 -20 -20 -20 -20 -20 -20 -20 -20 -20 -20 -20 -20 -20 -20 -20 -6 -15 -20 -20 -20 -20 -20
10 -14 -2 -20 -20 -12 -16 -20 -20 -20 -20 -20 -20 -20 -20 -20 -20 -20 -20 -20 -20 -20 -20 -20 -20 -20 -20 -20 -20 -20 -20 -20 -20 -20 -20 -20 -20 -20 -20 -20 -20 -20 -20 -20 -20 -20 -20
-14 8 14 -19 -20 -20 -16 -20 -20 -20 -20 -20 -20 -20 -20 -20 -20 -20 -20 -20 -20 -20 -20 -20 -20 -20 -20 -20 -20 -20 -20 -20 -20 -20 -20 -20 -20 -20 -20 -20 -20 -20 -20 -20 -20 -20 -20
10 11 -3 13 -20 -20 -20 -20 -20 -15 -20 -20 -20 -20 -20 -20 -20 -20 -20 -20 -20 -20 -20 -20 -20 -20 -20 -20 -20 -20 -20 -20 -20 -20 -20 -20 -20 -20 -20 -20 -20 -20 -20 -20 -20 -20 -20
-17 0 13 -6 -9 -20 -20 -20 -20 -19 6 -20 -4 -20 1 3 -20 -20 -20 -20 -20 -20 -3 -20 -20 -20 -20 -20 -20 -20 -20 -20 -20 -20 -20 -20 -20 -20 -20 -20 -20 -20 -20 -20 -20 -20 -20
-20 -17 10 3 20 6 -20 7 -20 -20 -20 -14 -15 11 2 -20 -20 -20 -18 -20 -20 -20 -20 -12 -20 -20 -20 -20 -20 -20 -20 -20 -20 -20 -20 -20 -20 -20 -20 -20 -20 -20 -20 -20 -20 -20 -20
-20 -20 -11 22 21 15 11 9 -20 -20 -20 -20 -20 3 -13 -17 -20 -20 -20 -20 -20 -20 -20 -20 -20 -18 -20 -20 -19 -20 -20 -20 -20 -20 -20 -20 -20 -20 -20 -20 -20 -20 -20 -20 -20 -20 -20
-20 -20 -20 8 22 15 15 -20 -17 -20 -20 -20 -20 -19 5 -20 -20 -20 -20 -20 -20 -20 -20 -20 -20 -20 -20 -20 -20 -20 -20 -20 -20 -20 -20 -20 -20 -20 -20 -20 -20 -20 -20 -20 -20 -20 -20
-20 -5 -12 -20 -0 15 -1 5 -20 -2 -20 -20 -20 -20 -20 -20 -19 -4 -20 -20 -20 -20 -20 -20 -20 -20 -20 -20 -20 -20 -20 -20 -20 -20 -20 -20 -20 -20 -20 -20 -20 -20 -20 -20 -20 -20 -20
-20 2 20 -15 8 22 17 16 -19 -20 -11 -20 -20 -20 -20 7 -20 -20 -17 -19 -20 -20 -20 -20 -20 -20 -20 -20 -20 -20 -20 -20 -20 -20 -20 -20 -20 -20 -20 -20 -20 -20 -20 -20 -20 -20 -20
-20 3 20 20 6 22 18 31 26 -13 -20 -20 -2 -20 -20 -20 -20 -20 -20 -20 -20 -17 -20 -20 -20 -20 -20 -20 -20 -20 -20 -20 -20 -20 -20 -20 -20 -20 -20 -20 -20 -20 -20 -20 -20 -20 -20
-4 6 18 20 15 16 24 33 30 16 18 -20 -20 -15 -20 -20 -20 -20 -14 -18 -11 -4 -20 -20 -20 -20 -20 -20 -20 -20 -20 -20 -20 -20 -20 -20 -20 -20 -20 -20 -20 -20 -20 -20 -20 -20 -20
11 15 21 34 23 1 29 38 32 17 11 25 32 19 -20 -20 -20 -7 20 11 14 -20 -20 -20 -20 -20 -20 -20 -20 -20 -20 -20 -20 -20 -20 -20 -20 -20 -20 -20 -20 -20 -20 -20 -20 7 9
19 30 32 31 18 17 18 35 28 9 33 40 33 22 11 -3 22 13 12 18 1 -20 -20 -20 -20 -20 -20 -20 -20 -20 -20 -20 -20 -20 -20 -20 -20 -20 -20 -20 -20 -20 -20 -20 -20 -20 -19
-1 19 23 22 23 1 30 17 22 27 34 39 34 14 7 -20 -18 31 29 20 8 -20 -20 -20 -19 -20 -4 -20 -20 -20 -20 -20 -20 -20 -20 -20 -19 -20 -20 -20 -20 -20 -20 -20 -20 -20 -5
16 23 32 22 20 17 29 25 26 35 34 33 29 22 -1 -7 10 34 32 15 -5 -20 -20 -20 -20 18 -10 10 -20 -20 -8 -20 -20 -20 -20 -20 10 -8 -20 -20 -20 -20 -20 -20 -12 -20 -20
27 29 28 32 14 35 14 22 26 23 38 40 39 22 22 -19 23 29 23 15 19 -20 -20 -20 -18 4 -18 14 -20 6 13 -20 -20 -20 -20 -20 -20 5 -20 -20 -20 -20 -20 -20 -20 -20 -20
18 25 28 25 12 6 20 30 33 26 32 33 35 26 30 -17 16 20 11 7 -20 -19 -20 -20 -20 -20 -20 -20 -12 18 -7 -20 -19 -18 -20 -20 -20 11 1 -20 -20 -20 -20 0 -1 -5 -17
17 20 15 11 29 26 35 23 33 21 28 28 32 22 35 -5 13 13 11 17 7 -15 -11 -15 -20 -20 -20 -20 -19 -8 -20 -20 -20 -20 -20 -11 6 -6 -10 9 -10 -20 8 -20 -20 -20 -20
-2 14 11 14 38 15 16 42 32 21 20 29 28 17 18 -2 16 25 17 11 12 10 6 -9 -20 -20 -20 9 -4 -20 -11 -20 -20 -20 -20 -20 -20 -17 0 -16 -20 15 -10 -20 -20 -20 -18
6 7 8 13 35 23 25 25 24 20 22 23 33 11 15 -20 10 12 20 16 -9 -13 -20 -20 -20 -20 -10 -20 -20 -20 -20 -20 -20 -20 -20 -20 -0 -20 -1 -20 -20 -20 -20 -20 -20 -20 -20
-14 -20 10 17 30 31 36 18 37 12 27 29 27 -1 13 -16 31 31 33 12 -9 7 -9 -20 -20 -20 -5 -19 -20 -20 -17 -20 -20 -20 -20 -20 -20 -10 4 -20 -20 -20 -20 -20 -20 -20 -20
11 -18 -20 11 28 35 37 43 31 20 16 0 11 15 25 19 37 27 10 11 12 19 5 -19 -18 -20 11 -18 -20 -20 -11 -20 -20 -20 -20 -20 -20 25 -4 -16 -20 -20 -20 -20 -20 -20 -20
1 6 5 7 28 21 28 22 21 21 23 15 11 15 4 28 15 23 7 3 -3 21 30 -8 -11 -20 19 32 -7 -3 5 -20 -18 -20 -20 -20 -20 -16 -20 -20 -20 -20 -20 -20 -20 -20 -20
17 12 8 2 25 15 15 31 41 37 30 28 8 21 15 26 24 25 -13 -20 14 37 40 2 4 25 -1 11 14 2 -4 -20 -20 2 -9 -19 -20 -20 -20 -20 -20 -20 -20 -20 -20 -20 -20
-20 -20 1 4 32 18 12 16 34 22 33 30 14 33 10 29 24 18 34 31 23 13 23 -6 -10 -6 14 16 11 -1 -15 -20 -10 -8 -10 -17 -8 -14 -15 -20 -20 -20 -20 -20 -20 -20 -20
-20 -20 9 25 27 11 3 10 18 16 33 27 31 24 28 23 28 38 37 30 26 2 26 21 24 10 14 13 10 5 -19 -20 -20 -20 -20 -20 -2 4 -4 5 -3 -18 -20 -20 -20 -20 -20
-20 -12 -5 17 27 9 6 21 31 35 35 30 25 28 34 30 30 33 35 33 31 2 9 -19 -3 7 8 -9 11 -17 -2 -20 -20 -20 -20 3 -19 -20 -20 -20 -20 -20 -20 -20 -20 -20 -20

GFSGBSN_prec_radar_279.txt.gz
Reflectivity
-17 -12 -20 -20 -6 -20 -20 -20 -20 -20 -20 -20 -20 -20 -20 -20 -20 -20 -20 -20 -20 -20 -20 -20 -20 -20 -20 -20 -20 -20 -20 -20 -20 -20 -20 -20 -20 -20 -20 -20 -20 -20 -20 -20 -20 -13 -5
7 -19 -20 -20 -15 -15 -20 -20 -20 -20 -20 -20 -20 -20 -20 -20 -20 -20 -20 -20 -20 -20 -20 -20 -20 -20 -20 -20 -20 -20 -20 -20 -20 -20 -20 -20 -20 -20 -20 -20 -20 -20 -20 -20 -20 -1 -9
-18 -14 0 -20 -20 -20 -20 -20 -20 -20 -20 -20 -20 -20 -20 -20 -20 -20 -20 -20 -20 -20 -20 -20 -20 -20 -20 -20 -20 -20 -20 -20 -20 -20 -20 -20 -20 -20 -20 -20 -20 -20 -20 -20 -20 -9 -20
-20 -3 -20 -20 -20 -20 -20 -19 -20 -20 -20 -20 -20 -20 -20 -20 -20 -20 -20 -20 -20 -20 -20 -20 -20 -20 -20 -20 -20 -20 -20 -20 -20 -20 -20 -20 -20 -20 -20 -20 -20 -20 -20 -13 -20 -20 -20
-20 -20 -19 -20 -20 -20 -20 -20 -20 -20 -20 -20 -20 -20 -20 -20 -20 -20 -20 -20 -20 -20 -20 -20 -20 -20 -20 -20 -20 -20 -20 -20 -20 -20 -20 -20 -20 -20 -20 -20 -20 -20 -2 -16 -20 -20 -20
-20 -20 -20 -20 -20 -10 -20 -20 -20 -20 -20 -20 -20 -20 -20 -20 -20 -20 -20 -20 -20 -20 -20 -20 -20 -20 -20 -20 -20 -20 -20 -20 -20 -20 -20 -20 -20 -20 -20 -20 -20 -20 -6 -20 -20 -20 -20
-20 -20 -20 -20 -20 -20 9 -20 -20 -20 -20 -20 -20 -20 -20 -20 -20 -20 -20 -20 -20 -20 -20 -20 -20 -20 -20 -20 -20 -20 -20 -20 -20 -20 -20 -20 -20 -20 -20 -10 -19 -20 -20 -20 -20 -20 -20
-20 -20 -20 -20 -20 -20 -20 -20 -20 -20 -20 -20 -20 -20 -20 -20 -20 -20 -20 -20 -20 -20 -20 -20 -20 -20 -20 -18 -20 -16 -20 -20 -20 -20 -20 -16 -13 1 3 -8 -20 -20 -20 -20 -20 -20 -20
-20 -20 -20 -20 -20 -20 -20 -20 -20 -20 -20 -20 -20 -20 -20 -20 -20 -20 -20 -20 -20 -20 -20 -20 -20 -20 -20 -20 -20 -20 -20 -20 -19 -15 -17 -20 -20 -20 -20 -20 -20 -20 -20 -20 -20 -20 -20
-20 -20 -20 -20 -20 -20 -20 -20 -20 -20 13 -20 -20 -20 -20 -20 -20 -20 -20 -20 -20 -20 -20 -20 -20 -20 -20 -20 -20 -20 -20 -20 -20 -20 -20 -20 -20 -20 -20 -20 -20 -20 -20 -20 -20 -20 -20
-20 -20 -20 -20 -20 -20 -20 -20 -20 -20 -20 11 -5 -20 -20 -20 -20 -20 -20 -20 -20 -20 -20 -20 -20 -20 -20 -20 -20 -20 -20 -20 -20 -20 -20 -20 -20 -20 -20 -20 -20 -20 -20 -20 -20 -20 -20
-12 -14 -20 -20 -20 -20 -20 -20 -20 -20 -20 -20 8 7 -20 17 -20 -20 -20 -20 -20 -10 -18 -20 -20 -20 -20 -20 -20 -20 -20 -20 -20 -20 -20 -20 -20 -20 -20 -20 -20 -20 -20 -20 -20 -20 -20
-20 -20 -20 -20 -20 -20 -20 -20 -20 -20 -20 -20 -19 21 4 12 -20 -20 -13 -20 19 -1 -20 -20 -20 -20 -20 -20 -20 -20 -20 -20 -20 -20 -20 -20 -20 -20 -20 -20 -20 -20 -20 -20 -20 -20 -20
-20 -20 -20 -20 -20 -20 -20 -20 -20 -20 -20 -20 -18 13 24 17 -20 -19 -20 21 29 -7 -20 -20 -20 -20 -20 -20 -20 -20 -20 -20 -20 -20 -20 -20 -20 -20 -20 -20 -20 -20 -20 -20 -20 -20 -20
-20 -20 -20 -20 -20 -20 -20 -20 -20 -20 -20 -20 -20 7 29 10 -19 3 21 16 17 -20 -20 -20 -20 -20 -20 -20 -20 -20 -20 -20 -20 -20 -20 -20 -20 -20 -20 -20 -20 -20 -20 -20 -20 -20 -19
-20 -20 -20 -20 -20 -20 -20 -20 -20 -20 -20 -20 3 -2 30 10 22 19 17 21 -20 -20 -20 -20 -20 -20 -20 -20 -20 -20 -20 -20 -20 -20 -20 -20 -20 -20 -20 -20 -20 -20 -20 -20 -20 -20 -20
-9 -20 -20 -20 -20 -20 -20 -20 -20 -20 -20 -20 15 1 26 33 30 26 29 27 -20 -20 -20 -20 -20 -20 -20 -20 -20 -20 -20 -20 -20 -20 -20 -3 -20 -20 -20 -20 -20 -20 -20 -20 -20 -20 -20
-20 -20 -20 -20 -20 -20 -20 3 -20 -20 -20 9 14 25 21 26 37 44 35 3 -20 -20 -20 -20 -20 -20 -20 -20 -20 -20 -20 -20 -20 -20 -20 -20 -20 -20 -20 -20 -20 -20 -20 -20 -20 -20 -20
-20 -20 -20 -20 -20 -20 -20 -20 -16 -20 -17 16 40 19 31 28 24 42 28 -11 -20 -20 -20 -20 -20 -20 -20 -20 -20 -20 -20 -20 -20 -20 -20 -20 -20 -20 -20 -19 -20 -20 -20 -20 -20 19 22
-20 -20 -20 -20 -20 -20 -20 -20 -6 -9 1 37 37 29 26 34 29 38 25 1 -8 -20 -20 -20 -20 -20 -20 -20 -20 -20 -20 -20 -20 -17 -20 -20 -20 -20 -20 -1 -20 -20 -19 -20 -20 -6 -0
-20 -20 -20 -20 -20 -20 -6 -20 -20 -9 19 37 39 27 32 39 39 46 18 -4 1 -19 -3 -20 -20 -20 -20 -20 -20 -20 -20 -20 -20 -20 -20 -20 -20 -20 -20 -20 -19 -20 -6 29 -6 -20 17
-20 -20 -20 -20 -20 -20 -2 17 -20 6 7 38 41 36 39 25 41 6 29 29 33 -11 -16 -20 -20 -20 -20 -20 -20 -20 30 -18 2 -20 -20 -20 -20 -20 -20 -20 4 3 5 -20 -20 5 -3
-20 -20 -20 -20 -20 -15 -20 11 5 13 33 36 38 31 24 32 34 24 15 30 22 -17 2 -20 -20 -20 -20 -20 -19 -7 -3 -15 -20 -13 7 -20 -20 -20 -20 -20 -7 16 -15 -3 -20 -18 -16
-20 -20 -11 -20 -4 -7 -20 19 14 19 31 39 30 41 33 38 31 32 18 5 6 6 -16 -20 -15 11 -20 14 11 -11 -11 -3 -20 -15 -20 -20 -20 -20 -20 -17 28 -19 -20 -14 -19 6 -2
-20 -20 -20 -20 -20 12 14 14 -16 14 34 35 30 28 40 27 30 32 30 25 32 25 13 14 -20 -6 4 5 17 6 -0 -20 -7 7 -20 17 -20 -20 -20 -3 -18 -20 -20 -20 -20 -20 -20
-20 -20 -20 -20 -20 -20 10 -20 3 15 33 27 25 35 35 34 26 24 33 37 40 33 20 -7 -20 18 27 31 -19 8 -0 -20 8 18 23 -20 -20 -20 -20 -20 -20 -17 -18 -20 -20 -20 -20
-20 -20 -20 -20 -20 -20 -20 -20 -17 22 29 31 31 36 34 41 27 22 31 38 39 28 -4 -3 21 21 18 17 16 8 -13 -20 -20 -20 -20 -20 -20 -20 -20 -20 -20 -20 -20 -20 -20 -20 -20
-20 -20 -20 -20 -20 -20 -20 -20 -18 22 20 30 17 27 40 42 30 35 34 29 34 28 -2 8 36 29 38 26 -13 -19 -20 -20 -20 -10 -18 -15 -20 -20 -20 -20 -17 -12 -20 -20 -20 -20 -20
-20 -20 -20 -20 -20 -20 -20 -20 3 23 9 25 19 26 32 37 35 37 34 34 25 23 12 18 13 27 26 -12 -8 -20 -15 -20 -20 -4 -20 -19 -20 -20 -20 -17 -16 -18 -20 -20 -20 -20 -20

GFSGBSN_prec_radar_285.txt.gz
Reflectivity
-20 -20 -20 -20 -20 -20 -20 -20 -20 -20 -20 -20 -20 -20 -20 -20 -20 -20 -20 -20 -20 -20 -20 -20 -20 -20 -20 -20 -20 -20 -20 -20 -20 -20 -20 -20 -20 -20 -20 -20 -20 -20 -20 -20 -20 -20 -20
-20 -20 -20 -20 -20 -20 -20 -20 -20 -20 -20 -20 -20 -20 -20 -20 -20 -20 -20 -20 -20 -20 -20 -20 -20 -20 -20 -20 -20 -20 -20 -20 -20 -20 -20 -20 -20 -20 -20 -20 -20 -20 -20 -20 -20 -20 -20
-20 -20 -20 -20 -20 -20 -20 -20 -20 -7 -20 -20 -20 -20 -20 -20 -20 -20 -20 -20 -20 -20 -20 -20 -20 -20 -20 -20 -20 -20 -20 -20 -20 -20 -20 -20 -20 -20 -20 -20 -20 -20 -20 -20 -20 -20 -20
-20 -20 -20 -20 -20 -20 -20 -20 -20 -20 -13 -18 -20 -20 -20 -20 -20 -20 -20 -20 -20 -20 -20 -20 -20 -20 -20 -20 -20 -20 -20 -20 -20 -20 -20 -20 -20 -20 -20 -20 -20 -20 -20 -20 -20 -20 -20
-20 -20 -20 -20 -20 -20 -20 -20 -20 -20 -20 -20 -20 -20 -20 -20 -20 -20 -20 -20 -20 -20 -20 -20 -20 -20 -20 -20 -20 -20 -20 -20 -20 -20 -20 -20 -20 -20 -20 -20 -20 -20 -20 -20 -20 -20 -20
-20 -20 -20 -20 -20 -20 -20 -20 -20 -20 -20 -20 -20 -20 -20 -20 -20 -20 -20 -20 -20 -20 -20 -20 -20 -20 -20 -20 -20 -20 -20 -20 -20 -20 -20 -20 -20 -20 -20 -20 -20 -20 -20 -20 -20 -20 -20
-20 -20 -20 -20 -20 -20 -20 -20 -20 -20 -20 -20 -20 -20 -20 -20 -20 -20 -7 -20 -20 -20 -20 -20 -20 -20 -20 -20 -20 -20 -20 -20 -20 -20 -20 -20 -20 -20 -20 -20 -20 -20 -20 -20 -20 -20 -20
-20 -20 -20 -20 -20 -20 -20 -20 -20 -20 -20 -20 -20 -20 -20 -20 -20 -20 -20 -20 -20 -20 -20 -20 -20 -20 -20 -20 -20 -20 -20 -20 -20 -20 -20 -20 -20 -20 -20 -20 -20 -20 -20 -20 -20 -20 -20
-20 -20 -20 -20 -20 -20 -20 -20 -20 -20 -20 -20 -20 -20 -20 -20 -20 -20 -20 -20 -20 -20 -20 -20 -20 -20 -20 -20 -20 -19 -20 -20 -20 -20 -20 -20 -20 -20 -20 -17 -20 -20 -20 -20 -20 -20 -20
5 6 -20 -20 -20 -20 -20 -20 -20 -20 -20 -20 -20 -20 -20 -20 -20 -20 -20 -20 -20 -20 -20 -20 -20 -20 -20 -20 -20 -20 -20 -20 -20 -20 -20 -20 -20 -20 -20 -20 -20 -20 -20 -20 -20 -20 -20
8 9 11 -12 -20 -20 -20 -20 -20 -20 -20 -20 -20 -20 -20 -18 -17 -20 -20 -20 -20 -20 -20 -20 -20 -20 -20 -20 -20 -20 -20 -20 -20 -20 -20 -20 -20 -20 -20 -20 -20 -20 -20 -20 -20 -20 -20
-2 -18 0 12 3 -14 -20 -20 -20 -20 -20 -20 -20 -20 -20 -20 -11 -20 -20 -20 -20 -20 -20 -20 -20 -20 -20 -20 -20 -20 -20 -20 -20 -20 -20 -20 -20 -20 -20 -20 -20 -20 -20 -20 -20 -20 -20
10 -11 -20 -13 -8 -20 -9 -20 -20 -20 -20 -20 -20 -20 -20 -20 12 -20 -20 -20 -8 -20 -20 -20 -20 -20 -20 -20 -20 -20 -20 -20 -20 -20 -20 -20 -20 -20 -20 -20 -20 -20 -20 -20 -20 -20 -20
-20 -20 -20 -20 -20 -20 -20 -20 -20 -20 -20 -20 -20 -20 -20 -20 -19 -15 -0 -20 -20 -20 -20 -20 -20 -20 -20 -20 -20 -20 -20 -20 -20 -20 -20 -20 -20 -20 -20 -20 -20 -20 -20 -20 -20 -20 -20
-6 -20 -20 -20 -20 -20 -20 -20 -20 -20 -6 2 3 -20 -20 -20 -20 3 18 17 -20 -20 -20 -20 -20 -20 -20 -20 -20 -20 -20 -20 -20 -20 -20 -20 -20 -20 -20 -20 -20 -20 -20 -20 -20 -20 -20
7 -20 -1 -20 -20 -13 -20 -20 -20 -20 -20 8 -20 -20 -20 -20 -20 -12 24 -0 -20 -20 -20 -20 -20 -20 -20 -20 -20 -20 -20 -20 -20 -20 -20 -20 -20 -20 -20 -20 -20 -20 -20 -20 -20 -20 -20
-19 -18 -20 -20 -20 -20 -20 -20 -20 -20 -9 4 -20 -20 -20 -20 -11 -20 -11 5 -20 -20 -20 -20 -20 -20 -20 -20 -20 -20 -20 -20 -20 -20 -20 -20 -20 -20 -20 -20 -20 -20 -20 -20 -20 -20 -20
-18 -20 -2 -20 -20 -20 -20 -20 -20 -20 14 -16 -20 -20 -20 -20 -20 -20 -20 -20 -20 -20 -20 -20 -20 -20 -20 -20 -20 -20 -20 -20 -20 -20 -20 -20 -20 -20 -20 -20 -20 -20 -20 -20 -20 -20 -20
11 10 -20 -20 -20 -20 -20 -20 -20 -20 -17 -6 -20 -20 -20 -20 -20 -20 -20 -20 -20 -20 -20 7 8 -20 -20 -20 -20 -20 -20 -20 -20 -20 -20 -20 -20 -20 -20 -20 -20 -20 -20 -20 -20 -20 -20
-5 4 -11 -10 -20 6 -20 -20 -20 -14 13 -20 -8 -15 -20 -5 -8 -20 -20 -20 -20 -20 -20 -16 20 0 -20 -20 -20 -20 -20 -20 -20 -20 -20 -20 -20 -20 -20 -20 -20 -20 -20 -20 -20 -20 -20
-18 3 -20 -12 18 -12 -20 -20 -19 -9 1 5 11 -0 -20 -12 -12 -20 -20 -20 -20 -20 -20 -20 0 10 1 -1 -20 -20 -20 -20 -20 -20 -20 -20 -20 -20 -20 -20 -20 -20 -20 -20 -20 -20 -20
-18 -19 -2 -20 22 -20 -20 -20 15 -20 17 18 13 5 -9 -1 -20 -8 -1 0 -20 -20 -20 -20 23 -15 2 -0 -20 -20 -20 -20 -20 -20 -20 -12 -20 -20 -20 -20 -20 -20 -20 -20 -20 -20 -20
20 -10 -20 -14 6 -17 -20 -20 -18 10 19 8 15 -14 -13 -18 4 8 -6 -8 -20 -7 -20 -20 -20 6 9 33 -16 -20 -20 -17 -20 -20 -20 15 21 17 -20 -20 -9 -19 -20 -20 -20 -20 -20
18 20 10 -10 -20 -20 -20 -20 -18 17 4 -5 12 15 21 9 3 -20 -20 -20 -6 -20 4 -20 -20 -20 29 -18 10 6 -19 -20 -20 -20 23 19 -9 19 -2 -0 16 -20 -20 -20 -20 -20 -20
17 16 16 5 8 -20 -20 -15 14 16 16 17 23 15 25 12 -15 -16 -10 -15 -20 -20 -17 -20 -20 -19 -19 8 26 15 6 21 11 -20 22 18 25 20 16 9 -12 -20 -20 -5 -20 -20 -20
17 16 14 -11 -20 -20 -20 -20 -20 -17 15 21 -18 11 26 29 -7 -20 -20 -20 -20 -18 -20 -20 -20 -20 16 28 34 41 32 21 26 30 22 21 1 24 20 30 -5 -20 -20 9 10 -20 -20
14 15 -20 -20 -20 -20 -20 -20 -20 -20 -20 18 -4 -20 27 24 16 -19 -4 -20 -20 -8 11 34 -7 14 28 43 21 33 33 0 7 -15 5 4 18 22 15 23 -4 -20 2 10 -20 -20 2
29 19 -20 -20 -20 -20 -20 -20 -20 -20 -20 -9 -2 -20 15 15 15 -8 -20 -20 -14 7 9 25 24 1 21 39 40 49 21 -15 -3 -16 6 -0 3 -1 28 44 -3 -19 8 -19 -19 -6 20
31 9 -18 -19 -20 -20 -20 -20 -20 -20 -2 12 7 -20 18 13 21 11 -20 -20 -20 -0 14 21 30 28 4 34 35 43 20 -6 21 14 -20 3 -20 -20 13 23 1 11 22 0 -20 -20 -20

GFSGBSN_prec_radar_291.txt.gz
Reflectivity
9 9 1 -20 -17 -20 -13 -9 -20 -20 -20 -20 -20 -20 -20 -20 -20 -20 -20 -20 -20 -20 -20 -20 -20 -20 -20 -20 -20 -20 -20 -20 -20 -20 -20 -20 -20 -20 -20 -20 -20 -20 -20 -20 -20 -20 -20
-17 -2 -0 -20 -20 -20 -14 -20 -20 -9 -20 -20 -20 -20 -20 -20 -20 -20 -20 -20 -20 -20 -20 -20 -20 -20 -20 -20 -20 -20 -20 -20 -20 -20 -20 -20 -20 -20 -20 -20 -20 -20 -20 -20 -20 -20 -20
-20 -20 -20 -20 -20 -20 -20 -20 -19 -20 -20 -12 -18 -13 -20 -20 -20 -20 -20 -20 -20 -20 -20 -20 -20 -20 -20 -20 -20 -20 -20 -20 -20 -20 -20 -20 -20 -20 -20 -20 -20 -20 -20 -20 -20 -20 -20
-20 -20 -20 -20 -20 -20 -20 -20 -20 -15 -1 -20 -20 -20 -20 -20 -20 -20 -20 -20 -20 -20 -20 -20 -20 -20 -20 -20 -20 -20 -20 -20 -20 -20 -20 -20 -20 -20 -20 -20 -20 -20 -20 -20 -20 -20 -20
4 -20 -20 -20 -20 -20 -20 -20 -20 -20 -20 -20 -20 -20 -20 -20 -20 -20 -20 -20 -20 -20 -20 -20 -20 -20 -20 -20 -20 -20 -20 -20 -20 -20 -20 -20 -20 -20 -20 -20 -20 -20 -20 -20 -20 -20 -20
-20 8 -10 -20 -20 -20 -20 -20 -20 -20 -20 -20 -20 -20 -20 -20 -20 -20 -20 -20 -20 -20 -20 -20 -20 -20 -20 -20 -20 -20 -20 -20 -20 -20 -20 -20 -20 -20 -20 -20 -20 -20 -20 -20 -20 -20 -20
-20 -20 -20 -20 -20 -20 -20 -20 -20 -20 -20 -20 -20 -20 -20 -20 -20 -20 -20 -20 -20 -20 -20 -20 -20 -20 -20 -20 -20 -20 -20 -20 -20 -20 -20 -20 -20 -20 -20 -20 -20 -20 -20 -20 -20 -20 -20
-20 -20 -20 -20 -20 -20 -20 -20 -20 -20 -20 -20 -20 -20 -20 -20 -20 -20 -20 -20 -20 -20 -20 -20 -20 -20 -20 -20 -20 -20 -20 -20 -20 -20 -20 -20 -20 -20 -20 -20 -20 -20 -20 -20 -20 -20 -20
-20 -20 -20 -20 -20 -20 -20 -20 -20 -20 -20 -20 -20 -20 -20 -20 -20 -20 -20 -20 -20 -20 -20 -14 -20 -20 -13 -18 -19 -8 -20 -20 -20 -20 -20 -20 -20 -20 -20 -20 -20 -20 -20 -20 -20 -20 -20
-20 -20 -20 -20 -20 -20 -20 -20 -20 -20 -20 -20 -20 -20 -20 -20 -20 -20 -20 -20 -20 -20 -20 -20 -20 -20 -20 -20 -20 -20 -20 -20 -20 -20 -20 -20 -20 -20 -20 -20 -20 -20 -20 -20 -20 -20 -20
-20 -20 -20 -20 -20 -20 -20 -20 -20 -20 -20 -20 -20 -20 -20 -20 -20 -20 -20 -20 -20 -20 -20 -20 -20 -20 -20 -20 -20 -20 -20 -20 -20 -20 -20 -20 -20 -20 -20 -20 -20 -20 -20 -20 -20 -20 -20
-20 -20 -20 -20 -20 -20 -20 -20 -20 -20 -20 -20 -20 -20 -20 -20 -20 -20 -20 -20 -20 -20 -20 -20 -20 -20 -20 -20 -20 -20 -20 -20 -20 -20 -20 -20 -20 -20 -20 -20 -20 -20 -20 -20 -20 -20 -20
-20 -20 -20 -20 -20 -20 -20 -20 -20 -20 -20 -20 -20 -20 -20 -20 -20 -20 -20 -20 -20 -20 -20 -20 -20 -20 -20 -20 -20 -20 -20 -20 -20 -20 -20 -20 -20 -20 -20 -20 -20 -20 -20 -20 -20 -20 -20
-20 -20 -20 -20 -20 -20 -20 -20 -20 -20 -20 -20 -20 -20 -20 -20 -20 -20 -20 -20 -20 -20 -20 -20 -20 -20 -20 -20 -20 -20 -20 -20 -20 -20 -20 -20 -20 -20 -20 -20 -20 -20 -20 -20 -20 -20 -20
-17 -14 -2 -20 -20 -20 -20 -20 -20 -20 -20 -20 -20 -20 -20 -20 -20 -20 10 -4 -20 -20 -20 -20 -20 -20 -20 -20 -20 -20 -20 -20 -20 -20 -20 -20 -20 -20 -20 -20 -20 -20 -20 -20 -20 -20 -20
-14 -1 -12 -0 -20 -20 -20 -20 -20 -20 -20 -20 -20 -20 -20 -20 -20 -20 2 -20 -20 -20 -20 -20 -20 -20 -20 -20 -20 -20 -20 -20 -20 -20 -20 -20 -20 -20 -20 -20 -20 -20 -20 -20 -20 -20 -20
-20 -20 -19 -12 -14 -20 -20 -20 -20 -20 -20 -20 -20 -20 -20 -20 -20 -20 -12 -20 -20 -20 -20 -20 -20 -20 -20 -20 -20 -20 -20 -20 -20 -20 -20 -20 -20 -20 -20 -20 -20 -20 -20 -20 -20 -20 -20
-20 -20 -20 -20 -20 -20 -20 -20 -20 -20 -20 -20 -20 -20 -20 -20 -20 -20 -20 -20 -20 -20 -20 -20 -20 -20 -20 -20 -20 -20 -20 -20 -20 -20 -20 -20 -20 -20 -20 -20 -20 -20 -20 -20 -20 -20 -20
-20 -20 -17 -20 -8 -13 0 9 -20 -20 -7 -20 -20 -20 -20 -20 -20 -20 -20 -20 -20 -20 -20 -20 -20 -20 -20 -20 -20 -20 -20 -20 -20 -20 -20 -20 -20 -20 -20 -20 -20 -20 -20 -20 -20 -20 -20
-20 -20 -14 -17 -20 -2 8 10 -20 9 6 14 -20 -20 -15 -5 -20 -20 -20 -20 -20 -20 -20 -20 -20 -20 -20 -20 -3 -16 -20 -20 -20 -20 -20 -20 -20 -20 -20 -20 -20 -20 -20 -20 -20 -20 -20
-3 -20 -20 -12 -20 4 -7 13 16 2 -20 10 -20 -20 -20 4 0 -20 -20 -20 -20 -20 -20 -20 -20 -20 -20 -20 -20 -20 -20 -20 -20 -20 -20 -20 -20 -20 -20 -20 -20 -20 -20 -20 -20 -20 -20
4 2 -20 -4 -20 -19 8 13 -17 10 -19 20 6 -8 -20 -20 -20 -20 -20 -20 -20 -20 -20 -20 -20 -20 -20 -20 -20 -20 -20 -20 -20 -20 -20 -13 -20 -20 -20 -20 -20 -20 -20 -20 -20 -20 -20
9 8 -7 7 -20 -20 5 -14 21 18 4 3 -2 -20 -17 -20 -20 -18 -20 -20 -18 -2 -20 -20 -20 -20 -20 -20 -20 -20 -20 -20 -20 -20 -20 -20 -13 1 7 -15 -2 -9 -20 -20 -20 -20 -20
-17 12 14 -6 -20 -19 15 2 2 -20 18 -20 16 -16 -4 3 -10 -20 -20 -20 -20 -20 -20 -20 -20 -20 -20 -20 -20 -20 -20 -20 -20 -20 -20 -20 -20 -12 17 13 18 -1 -20 -20 -20 -20 -20
13 2 1 -20 -20 -18 17 -12 -20 -3 21 12 17 14 -16 -19 -20 -20 -20 -20 -20 -6 -20 -0 -20 -20 -20 6 11 -13 -20 -20 -20 -20 -20 -20 -20 -20 11 5 4 -20 -20 -20 -20 -20 -20
8 10 5 -20 -20 -5 18 19 -20 10 23 17 4 11 19 -16 -19 -20 -20 -20 -18 -20 -20 -20 -20 -20 -20 1 10 -18 -4 -20 -20 -20 -20 -20 -20 -20 -20 11 7 -20 -20 -20 -20 -20 -20
8 12 -20 -20 -18 -8 -20 -20 6 -20 22 19 -20 -13 17 11 4 6 3 -20 -14 -11 -0 -20 -5 -20 -20 -7 12 6 8 -18 -5 -20 -20 -20 -20 -20 -20 -6 -13 -20 -20 -20 -17 -20 -20
16 8 -3 -8 -20 -9 21 17 -18 1 21 20 -0 -20 7 16 4 -1 -4 1 -10 11 8 -19 7 -20 -2 13 9 -20 -19 -20 -20 -20 -20 -20 -20 -18 -6 5 10 -20 -20 -18 -20 -20 -20
-8 -8 -0 -20 -20 20 18 14 16 -20 -18 22 13 -10 -4 19 16 -13 -20 -5 -17 -19 0 13 -17 -13 11 25 21 14 23 2 -9 10 -20 -17 -18 -18 -18 -18 -20 -20 -20 -20 -20 -20 -20